{"data":{"norad_id":66485,"epoch":"2026-05-24T16:16:38.162208Z","epoch_age_seconds":93031,"freshness":"FRESH","line1":"1 66485U 25263A   26144.67821947  .00013953  00000+0  51553-3 0  9990","line2":"2 66485  43.0007 281.2771 0003036  70.3333 289.7846 15.27583963 30527","mean_motion":15.27583963,"eccentricity":0.0003036,"inclination_deg":43.0007,"raan_deg":281.2771,"arg_perigee_deg":70.3333,"mean_anomaly_deg":289.7846,"bstar":0.00051553,"rev_number":3052,"period_min":94.266504158109,"perigee_km":480.95417692157,"apogee_km":485.12028191368,"semimajor_km":6861.1742294176,"source":"CELESTRAK","updated_at":"2026-05-25T13:38:21.241391Z"}}